#timestamp,LO_Frequency,Hit,StdDev 
1667354415.7,286047001.2,P
1667354435.5,286047002.7,P
1667354455.4,286047000.6,N
1667354475.2,286047002.6,Y
1667354495.0,286046997.9,P
1667354495.9,286046997.9,N
1667354515.8,286046995.3,N
1667354535.6,286046995.3,N
1667354555.5,286046997.0,N
1667354605.3,286046996.5,E
1667354615.2,286047000.3,N
1667354635.1,286047000.6,P
1667354636.0,286047000.6,P
1667354655.8,286047001.1,Y
1667354675.7,286047000.1,P
1667354695.5,286047002.7,P
1667354715.4,286047003.5,P
1667354735.3,286047003.3,N
1667354755.1,286047005.6,Y
1667354775.9,286047001.4,P
1667354795.7,286047003.2,P
1667354815.5,286047003.5,P
1667354835.4,286047005.0,Y
1667354855.2,286047005.4,P
1667354875.0,286047004.7,P
1667354875.9,286047004.7,P
1667354895.8,286047012.4,Y
1667354915.6,286047009.3,P
1667354935.5,286047012.7,P
1667354955.3,286047015.9,P
1667354975.1,286047023.6,Y
1667354995.9,286047014.3,P
1667355015.7,286047015.7,P
1667355035.5,286047016.0,P
1667355055.4,286047018.6,Y
1667355075.2,286047002.4,P
1667355095.1,286047002.9,N
1667355096.0,286047002.9,N
1667355115.8,286047003.4,N
1667355135.6,286047002.6,N
1667355155.5,286046998.9,N
1667355175.3,286047001.2,N
1667355195.2,286046998.5,N
1667355215.9,286046996.6,N
1667355235.7,286047000.2,N
1667355255.6,286046999.7,N
1667355275.4,286047003.2,N
1667355295.2,286047001.4,N
1667355315.1,286047003.0,N
1667355316.0,286047003.0,N
1667355335.8,286047004.3,N
1667355355.6,286047003.9,N
1667355375.5,286047001.5,N
1667355395.3,286047005.0,N
1667355415.2,286047005.3,N
1667355435.9,286047005.2,N
1667355455.7,286047006.6,N
1667355475.6,286047008.2,N
1667355495.4,286047006.2,N
1667355515.2,286047003.3,N
1667355535.1,286047000.4,N
1667355536.0,286047000.4,N
1667355555.8,286046999.2,N
1667355575.7,286046999.4,N
1667355595.5,286046999.3,N
1667355615.3,286046997.9,N
1667355635.2,286046995.5,N
1667355655.0,286046996.1,N
1667355655.9,286046996.1,N
1667355675.8,286046992.3,N
1667355695.6,286046996.0,N
1667355715.4,286046995.6,N
1667355735.3,286046996.8,N
1667355755.1,286047000.8,N
1667355775.8,286047001.9,N
1667355795.7,286047002.6,N
1667355815.5,286047000.1,N
1667355835.4,286047001.1,N
1667355855.2,286046999.9,N
1667355875.0,286046999.2,N
1667355875.9,286046999.2,N
1667355895.8,286047001.2,N
1667355915.6,286046999.3,N
1667355935.4,286046996.6,N
1667355955.3,286046995.1,N
1667355975.1,286046994.6,N
1667355995.9,286046993.2,N
1667356015.7,286046994.1,N
1667356035.5,286046993.2,N
1667356055.4,286046992.5,N
1667356075.2,286046992.6,N
1667356095.0,286046992.6,N
1667356095.9,286046992.6,N
1667356115.8,286046991.6,N
1667356135.6,286046993.1,N
1667356155.5,286046994.0,N
1667356175.3,286046996.4,N
1667356195.1,286046995.6,N
1667356215.9,286046994.9,N
1667356235.7,286046996.4,N
1667356255.5,286046996.4,N
1667356275.4,286046996.1,N
1667356295.2,286046993.8,N
1667356315.1,286046991.8,N
1667356316.0,286046991.8,N
1667356335.8,286046993.6,N
1667356355.6,286046991.8,N
1667356375.5,286046990.3,Y
1667356395.3,286046996.4,P
1667356415.2,286046994.0,P
1667356435.9,286046995.3,P
1667356455.7,286046996.8,Y
1667356475.6,286047002.9,P
1667356495.4,286047003.4,N
1667356515.2,286047003.8,N
1667356535.1,286047005.3,N
1667356536.0,286047005.3,N
1667356555.8,286047001.4,N
1667356575.7,286047003.1,N
1667356595.5,286047007.0,N
1667356615.3,286047006.7,N
1667356635.2,286047007.7,N
1667356655.0,286047006.1,N
1667356655.9,286047006.1,N
1667356675.8,286047006.5,N
1667356695.6,286047006.1,N
1667356715.4,286047006.0,N
1667356735.3,286047005.8,N
1667356755.1,286047005.2,N
1667356775.8,286047005.4,N
1667356795.7,286047001.9,N
1667356815.5,286047002.6,N
1667356835.4,286046999.9,N
1667356855.2,286046995.2,N
1667356875.0,286046993.7,N
1667356875.9,286046993.7,N
1667356895.8,286046993.9,N
1667356915.6,286046993.7,N
1667356935.4,286046995.5,N
1667356955.3,286046999.5,N
1667356975.1,286047002.2,N
1667356995.9,286047005.0,N
1667357015.7,286047011.3,N
1667357035.5,286047018.3,Y
1667357055.4,286047015.8,P
1667357075.2,286047017.8,N
1667357095.0,286047020.1,N
1667357095.9,286047020.1,N
1667357115.8,286047016.9,N
1667357135.6,286047016.8,N
1667357155.5,286047014.8,N
1667357175.3,286047016.0,Y
1667357195.1,286047004.3,P
1667357215.9,286047003.2,N
1667357235.7,286047002.6,N
1667357255.5,286047000.5,N
1667357275.4,286047005.7,N
1667357295.2,286047002.8,N
1667357315.1,286046997.6,N
1667357316.0,286046997.6,N
1667357335.8,286046994.6,N
1667357355.6,286046994.8,N
1667357375.5,286046990.3,N
1667357395.3,286046988.6,N
1667357415.1,286046985.3,N
1667357435.9,286046984.4,N
1667357455.7,286046982.8,N
1667357475.6,286046980.5,N
1667357495.4,286046984.7,N
1667357515.2,286046986.5,N
1667357535.1,286046989.7,N
1667357536.0,286046989.7,N
1667357555.8,286046988.2,N
1667357575.7,286046986.2,N
1667357595.6,286046988.2,N
1667357615.4,286046989.4,N
1667357635.3,286046990.8,N
1667357655.1,286046994.3,N
1667357675.8,286046993.9,N
1667357695.7,286046992.4,N
1667357715.5,286046992.6,N
1667357735.3,286046989.4,N
1667357755.2,286046989.5,N
1667357775.0,286046988.5,N
1667357775.9,286046988.5,N
1667357795.8,286046989.6,N
1667357815.6,286046991.6,N
1667357835.4,286046992.3,N
1667357855.3,286046996.3,N
1667357875.1,286046997.3,N
1667357895.8,286046995.0,N
1667357915.7,286046996.5,N
1667357935.5,286046997.0,N
1667357955.4,286046996.9,N
1667357975.2,286046997.7,N
1667357995.0,286046999.6,N
1667357995.9,286046999.6,N
